Left ArrowRight Arrow

32.19382, -80.73816

Hourly Observations for January 8, 2020

Temp ( °F °C ) Dew Point ( °F °C ) Humidity (%) Winds ( mph kmh ) Pressure ( in mb ) Visibility ( mi km ) Precip ( " mm )
12:15 am 00:15 Clear 50 10 30 -1 47 47 VRB 5 7 30.27 1025 10 16 N/A
12:35 am 00:35 Clear 50 10 30 -1 47 47 VRB 6 9 30.27 1025 10 16 N/A
12:55 am 00:55 Clear 50 10 28 -2 43 43 WNW 7 11 30.27 1025 10 16 N/A
1:15 am 01:15 Clear 50 10 28 -2 43 43 WNW 6 9 30.28 1025 10 16 N/A
1:35 am 01:35 Clear 50 10 28 -2 43 43 VRB 6 9 30.28 1025 10 16 N/A
1:55 am 01:55 Clear 50 10 28 -2 43 43 VRB 5 7 30.28 1025 10 16 N/A
2:15 am 02:15 Clear 48 9 28 -2 46 46 WNW 7 11 30.29 1026 10 16 N/A
2:35 am 02:35 Clear 48 9 28 -2 46 46 VRB 5 7 30.29 1026 10 16 N/A
2:55 am 02:55 Clear 48 9 28 -2 46 46 VRB 6 9 30.29 1026 10 16 N/A
3:15 am 03:15 Clear 48 9 28 -2 46 46 VRB 6 9 30.29 1026 10 16 N/A
3:35 am 03:35 Clear 48 9 30 -1 50 50 VRB 5 7 30.30 1026 10 16 N/A
3:55 am 03:55 Clear 46 8 30 -1 53 53 VRB 5 7 30.30 1026 10 16 N/A
4:15 am 04:15 Clear 46 8 30 -1 53 53 Calm 30.30 1026 10 16 N/A
4:35 am 04:35 Clear 46 8 30 -1 53 53 Calm 30.30 1026 10 16 N/A
4:55 am 04:55 Clear 45 7 30 -1 57 57 Calm 30.30 1026 10 16 N/A
5:15 am 05:15 Clear 43 6 30 -1 61 61 WNW 5 7 30.30 1026 10 16 N/A
5:35 am 05:35 Clear 43 6 30 -1 61 61 W 5 7 30.31 1026 10 16 N/A
6:50 am 06:50 Clear 43 6 30 -1 61 61 WNW 6 9 30.35 1028 10 16 N/A
7:50 am 07:50 Sunny 43 6 30 -1 61 61 W 6 9 30.37 1028 10 16 N/A
8:50 am 08:50 Sunny 45 7 32 0 61 61 W 6 9 30.40 1029 10 16 N/A
9:50 am 09:50 Sunny 50 10 32 0 50 50 WNW 9 15 30.44 1031 10 16 N/A
10:50 am 10:50 Sunny 52 11 30 -1 44 44 NNW 8 13 30.43 1030 10 16 N/A
11:50 am 11:50 Sunny 55 13 30 -1 38 38 NW 5 7 30.42 1030 10 16 N/A
12:50 pm 12:50 Sunny 59 15 27 -3 29 29 NW 6 9 30.40 1029 10 16 N/A
1:50 pm 13:50 Sunny 63 17 18 -8 17 17 W 9 15 30.38 1029 10 16 N/A
2:50 pm 14:50 Sunny 63 17 23 -5 22 22 WNW 6 9 30.37 1028 10 16 N/A
3:50 pm 15:50 Sunny 64 18 25 -4 22 22 WNW 6 9 30.38 1029 10 16 N/A
4:50 pm 16:50 Sunny 63 17 27 -3 25 25 WNW 6 9 30.34 1027 10 16 N/A
5:50 pm 17:50 Clear 54 12 36 2 51 51 Calm 30.41 1030 10 16 N/A
6:50 pm 18:50 Clear 48 9 36 2 62 62 Calm 30.43 1030 10 16 N/A
7:50 pm 19:50 Clear 46 8 36 2 66 66 Calm 30.45 1031 10 16 N/A
8:50 pm 20:50 Clear 45 7 36 2 71 71 Calm 30.46 1032 10 16 N/A
8:55 pm 20:55 Mostly Clear 45 7 36 2 71 71 Calm 30.46 1032 10 16 N/A
9:15 pm 21:15 Partly Cloudy 45 7 36 2 71 71 Calm 30.47 1032 10 16 N/A
9:35 pm 21:35 Partly Cloudy 43 6 36 2 76 76 Calm 30.48 1032 10 16 N/A
9:55 pm 21:55 Clear 45 7 34 1 66 66 Calm 30.48 1032 10 16 N/A
10:15 pm 22:15 Clear 43 6 36 2 76 76 Calm 30.48 1032 10 16 N/A
10:35 pm 22:35 Clear 43 6 34 1 71 71 Calm 30.48 1032 10 16 N/A
10:55 pm 22:55 Clear 43 6 34 1 71 71 Calm 30.48 1032 10 16 N/A
11:35 pm 23:35 Clear 41 5 36 2 81 81 Calm 30.47 1032 10 16 N/A
11:55 pm 23:55 Mostly Clear 41 5 34 1 76 76 Calm 30.48 1032 10 16 N/A

Powered by Vaisala Xweather